TimeMST,TemperatureF,Dew PointF,Humidity,Sea Level PressureIn,VisibilityMPH,Wind Direction,Wind SpeedMPH,Gust SpeedMPH,PrecipitationIn,Events,Conditions,WindDirDegrees,DateUTC
12:53 AM,32.0,16.0,52,29.81,10.0,WNW,15.0,26.5,N/A,,Clear,290,2012-12-13 07:53:00
1:53 AM,32.0,15.1,50,29.82,10.0,WNW,9.2,-,N/A,,Clear,300,2012-12-13 08:53:00
2:53 AM,30.9,16.0,54,29.85,10.0,WNW,5.8,-,N/A,,Clear,300,2012-12-13 09:53:00
3:53 AM,28.9,17.1,61,29.88,10.0,Calm,Calm,-,N/A,,Clear,0,2012-12-13 10:53:00
4:53 AM,27.0,16.0,63,29.93,10.0,South,5.8,-,N/A,,Clear,190,2012-12-13 11:53:00
5:53 AM,25.0,15.1,66,29.95,10.0,Calm,Calm,-,N/A,,Clear,0,2012-12-13 12:53:00
6:53 AM,25.0,15.1,66,29.97,10.0,SSW,5.8,-,N/A,,Clear,200,2012-12-13 13:53:00
7:53 AM,27.0,16.0,63,29.99,10.0,Calm,Calm,-,N/A,,Clear,0,2012-12-13 14:53:00
8:53 AM,33.1,17.1,52,29.95,10.0,Calm,Calm,-,N/A,,Clear,0,2012-12-13 15:53:00
9:53 AM,36.0,18.0,48,29.96,10.0,SSW,5.8,-,N/A,,Clear,210,2012-12-13 16:53:00
10:53 AM,39.0,18.0,43,29.94,10.0,SW,8.1,-,N/A,,Clear,230,2012-12-13 17:53:00
11:53 AM,43.0,16.0,34,29.91,10.0,WSW,10.4,18.4,N/A,,Clear,240,2012-12-13 18:53:00
12:53 PM,42.1,15.1,34,29.89,10.0,WSW,11.5,17.3,N/A,,Clear,240,2012-12-13 19:53:00
1:53 PM,43.0,16.0,34,29.86,10.0,WSW,9.2,21.9,N/A,,Clear,240,2012-12-13 20:53:00
2:53 PM,39.9,16.0,38,29.87,10.0,SW,9.2,-,N/A,,Clear,230,2012-12-13 21:53:00
3:53 PM,37.9,17.1,43,29.89,10.0,SW,8.1,17.3,N/A,,Clear,230,2012-12-13 22:53:00
4:53 PM,36.0,17.1,46,29.91,10.0,WSW,10.4,-,N/A,,Clear,240,2012-12-13 23:53:00
5:53 PM,36.0,18.0,48,29.90,10.0,SW,10.4,-,N/A,,Clear,230,2012-12-14 00:53:00
6:53 PM,39.0,17.1,41,29.89,10.0,WSW,11.5,17.3,N/A,,Clear,240,2012-12-14 01:53:00
7:53 PM,37.9,18.0,45,29.88,10.0,SW,9.2,-,N/A,,Clear,230,2012-12-14 02:53:00
8:53 PM,36.0,18.0,48,29.86,10.0,WSW,8.1,-,N/A,,Clear,240,2012-12-14 03:53:00
9:53 PM,34.0,16.0,48,29.85,10.0,WSW,6.9,-,N/A,,Clear,250,2012-12-14 04:53:00
10:53 PM,33.1,15.1,48,29.84,10.0,WSW,5.8,-,N/A,,Clear,250,2012-12-14 05:53:00
11:53 PM,35.1,14.0,42,29.80,10.0,WSW,8.1,-,N/A,,Clear,250,2012-12-14 06:53:00